Bryce Canyon, UT

1:05 PM MDT on October 23, 2019 (GMT -0600)
Bryce Canyon

Weather History for KBCE - August, 2019

Change the Weather History Date:

Friday, August 2, 2019

  Actual Average Record
Temperature  
Mean Temperature 64 °F -  
Max Temperature 82 °F 80 °F 88 °F (1993)
Min Temperature 48 °F 46 °F 32 °F (1975)
Growing Degree Days 14 (Base 50)    
Moisture  
Dew Point 48 °F    
Average Humidity 57    
Maximum Humidity 86    
Minimum Humidity 26    
Precipitation  
Precipitation 0.24 in - - ()
Sea Level Pressure  
Sea Level Pressure 30.15 in    
Wind  
Wind Speed 8 mph (WSW)    
Max Wind Speed 22 mph    
Max Gust Speed 31 mph    
Visibility 9 miles    
Events Rain , Thunderstorm    
Averages and records for this station are not official NWS values.
T = Trace of Precipitation, MM = Missing Value Source: NWS Daily Summary

Daily Weather History Graph

Daily Weather History Graph

Search for Another Location

Airport or City:

Astronomy

Aug. 02, 2019 Rise Set
Actual Time 6:32 AM MDT 8:36 PM MDT
Civil Twilight 6:03 AM MDT 9:05 PM MDT
Nautical Twilight 5:28 AM MDT 9:40 PM MDT
Astronomical Twilight 4:50 AM MDT 10:18 PM MDT
Moon 8:15 AM MDT (8/2) 10:09 PM MDT (8/2)
Length of Visible Light 15h 01m
Length of Day
14h 03m
Waxing Crescent, 4% of the Moon is Illuminated
Aug 2
Waxing Crescent
Aug 7
First Quarter
Aug 15
Full
Aug 23
Last Quarter
Aug 30
New

Hourly Weather History & Observations

Time (MDT) Temp. Dew Point Humidity Pressure Visibility Wind Dir Wind Speed Gust Speed Precip Events Conditions
12:53 AM 55.0 °F 46.9 °F 74% 30.04 in 10.0 mi West 9.2 mph - N/A   Clear
1:53 AM 53.1 °F 46.9 °F 80% 30.04 in 10.0 mi Calm Calm - N/A   Clear
2:53 AM 52.0 °F 46.0 °F 80% 30.03 in 10.0 mi West 8.1 mph - N/A   Clear
3:53 AM 52.0 °F 46.0 °F 80% 30.04 in 10.0 mi West 9.2 mph - N/A   Partly Cloudy
4:53 AM 51.1 °F 45.0 °F 80% 30.03 in 10.0 mi West 8.1 mph - N/A   Clear
5:53 AM 50.0 °F 45.0 °F 83% 30.05 in 10.0 mi West 8.1 mph - N/A   Clear
6:53 AM 48.0 °F 44.1 °F 86% 30.07 in 10.0 mi West 8.1 mph - N/A   Clear
7:53 AM 55.9 °F 46.9 °F 72% 30.06 in 10.0 mi West 4.6 mph - N/A   Clear
8:53 AM 64.0 °F 48.9 °F 58% 30.07 in 10.0 mi Calm Calm - N/A   Clear
9:53 AM 70.0 °F 48.0 °F 46% 30.08 in 10.0 mi Calm Calm - N/A   Clear
10:53 AM 75.0 °F 46.9 °F 37% 30.06 in 10.0 mi NE 6.9 mph - N/A   Clear
11:53 AM 78.1 °F 45.0 °F 31% 30.06 in 10.0 mi Variable 3.5 mph - N/A   Clear
12:53 PM 78.1 °F 44.1 °F 30% 30.05 in 10.0 mi SSW 4.6 mph - N/A   Mostly Cloudy
1:42 PM 75.0 °F 44.1 °F 33% 30.43 in 10.0 mi WNW 10.4 mph 24.2 mph N/A   Overcast
1:53 PM 78.1 °F 42.1 °F 28% 30.05 in 10.0 mi WNW 3.5 mph - N/A   Overcast
2:53 PM 80.1 °F 45.0 °F 29% 30.03 in 10.0 mi WSW 5.8 mph - N/A   Partly Cloudy
3:53 PM 81.0 °F 43.0 °F 26% 30.00 in 10.0 mi Variable 3.5 mph - N/A   Clear
4:53 PM 78.1 °F 48.0 °F 35% 30.00 in 10.0 mi SSE 6.9 mph - N/A Thunderstorm Thunderstorm
5:53 PM 70.0 °F 48.0 °F 46% 30.04 in 10.0 mi NW 15.0 mph - 0.00 in   Overcast
6:05 PM 71.1 °F 46.9 °F 42% 30.36 in 10.0 mi NNW 6.9 mph - N/A Thunderstorm Thunderstorm
6:43 PM 69.1 °F 50.0 °F 51% 30.38 in 1.8 mi West 10.4 mph 24.2 mph 0.09 in Rain , Thunderstorm Heavy Thunderstorms and Rain
6:53 PM 70.0 °F 46.9 °F 44% 30.06 in 2.5 mi East 9.2 mph - 0.13 in Rain , Thunderstorm Thunderstorms and Rain
7:02 PM 64.9 °F 52.0 °F 63% 30.37 in 6.0 mi SE 15.0 mph - 0.01 in Rain , Thunderstorm Light Thunderstorms and Rain
7:30 PM 66.0 °F 48.9 °F 54% 30.37 in 4.0 mi SSE 21.9 mph 31.1 mph 0.08 in Rain , Thunderstorm Heavy Rain
7:44 PM 64.0 °F 50.0 °F 60% 30.38 in 10.0 mi ESE 15.0 mph - 0.09 in Rain , Thunderstorm Light Thunderstorms and Rain
7:53 PM 64.9 °F 51.1 °F 61% 30.06 in 10.0 mi West 15.0 mph 20.7 mph 0.09 in Rain , Thunderstorm Light Thunderstorms and Rain
8:21 PM 62.1 °F 55.0 °F 78% 30.38 in 10.0 mi Variable 3.5 mph - 0.02 in Rain , Thunderstorm Light Rain
8:53 PM 62.1 °F 52.0 °F 70% 30.04 in 10.0 mi SE 15.0 mph - 0.02 in   Mostly Cloudy
9:15 PM 64.0 °F 50.0 °F 60% 30.40 in 10.0 mi ESE 6.9 mph - N/A Thunderstorm Mostly Cloudy
9:53 PM 63.0 °F 51.1 °F 65% 30.03 in 10.0 mi West 6.9 mph - N/A   Clear
10:53 PM 61.0 °F 54.0 °F 78% 30.04 in 10.0 mi South 9.2 mph - N/A   Mostly Cloudy
11:12 PM 64.0 °F 50.0 °F 60% 30.42 in 10.0 mi South 11.5 mph - N/A Thunderstorm Mostly Cloudy
11:32 PM 63.0 °F 50.0 °F 63% 30.43 in 10.0 mi SSW 11.5 mph - N/A   Overcast
11:53 PM 62.1 °F 51.1 °F 67% 30.03 in 10.0 mi South 5.8 mph - N/A   Overcast